Lafayette, LA

9:07 PM CDT on September 23, 2017 (GMT -0500)
Lafayette Regional

Weather History for KLFT - March, 2013

Change the Weather History Date:

Tuesday, March 26, 2013

  Actual Average Record
Temperature  
Mean Temperature 47 °F 64 °F  
Max Temperature 57 °F 75 °F 88 °F (1907)
Min Temperature 36 °F 54 °F 34 °F (1955)
Degree Days  
Heating Degree Days 18 3  
Month to date heating degree days 207 135  
Since 1 July heating degree days 1217 1365  
Cooling Degree Days 0 3  
Month to date cooling degree days 24 48  
Year to date cooling degree days 55 80  
Moisture  
Dew Point 24 °F    
Average Humidity 53    
Maximum Humidity 79    
Minimum Humidity 26    
Precipitation  
Precipitation 0.00 in 0.12 in 2.06 in (1967)
Month to date precipitation 1.90 3.21  
Year to date precipitation 19.77 13.33  
Snow  
Snow 0.00 in 0.00 in 0.00 in ()
Month to date snowfall 0.0 0.0  
Since 1 July snowfall 0.0 T  
Snow Depth 0.00 in    
Sea Level Pressure  
Sea Level Pressure 30.38 in    
Wind  
Wind Speed 8 mph (North)    
Max Wind Speed 21 mph    
Max Gust Speed 25 mph    
Visibility 10 miles    
Events      
T = Trace of Precipitation, MM = Missing Value Source: NWS Daily Summary

Daily Weather History Graph

Daily Weather History Graph

Search for Another Location

Airport or City:

Trip Planner

Search our weather history database for the weather conditions in past years. The results will help you decide how hot, cold, wet, or windy it might be!

Date:

Astronomy

Mar. 26, 2013 Rise Set
Actual Time 7:04 AM CDT 7:23 PM CDT
Civil Twilight 6:40 AM CDT 7:47 PM CDT
Nautical Twilight 6:12 AM CDT 8:15 PM CDT
Astronomical Twilight 5:43 AM CDT 8:43 PM CDT
Moon 6:59 PM CDT (3/26) 6:19 AM CDT (3/26)
Length of Visible Light 13h 07m
Length of Day
12h 19m
Waxing Gibbous, 99% of the Moon is Illuminated
Mar 26
Waxing Gibbous
Mar 27
Full
Apr 2
Last Quarter
Apr 10
New
Apr 18
First Quarter

Hourly Weather History & Observations

Time (CDT) Temp. Windchill Dew Point Humidity Pressure Visibility Wind Dir Wind Speed Gust Speed Precip Events Conditions
12:53 AM 46.0 °F 41.9 °F 21.0 °F 37% 30.32 in 10.0 mi NNW 8.1 mph - N/A   Clear
1:53 AM 44.1 °F 39.5 °F 23.0 °F 43% 30.33 in 10.0 mi NNW 8.1 mph - N/A   Clear
2:53 AM 43.0 °F 37.7 °F 23.0 °F 45% 30.35 in 10.0 mi NNW 9.2 mph - N/A   Clear
3:53 AM 42.1 °F 36.1 °F 23.0 °F 47% 30.36 in 10.0 mi North 10.4 mph - N/A   Clear
4:53 AM 39.9 °F 33.9 °F 24.1 °F 53% 30.37 in 10.0 mi North 9.2 mph - N/A   Clear
5:53 AM 37.9 °F 32.7 °F 24.1 °F 57% 30.38 in 10.0 mi North 6.9 mph - N/A   Clear
6:53 AM 37.0 °F 34.5 °F 24.1 °F 59% 30.40 in 10.0 mi NNW 3.5 mph - N/A   Clear
7:53 AM 39.0 °F 35.7 °F 24.1 °F 55% 30.42 in 10.0 mi NNW 4.6 mph - N/A   Clear
8:53 AM 43.0 °F 38.8 °F 19.9 °F 40% 30.45 in 10.0 mi North 6.9 mph - N/A   Clear
9:53 AM 46.9 °F - 18.0 °F 32% 30.45 in 10.0 mi North 15.0 mph 20.7 mph N/A   Clear
10:53 AM 48.9 °F - 19.0 °F 31% 30.45 in 10.0 mi North 15.0 mph 18.4 mph N/A   Clear
11:53 AM 50.0 °F - 19.9 °F 31% 30.44 in 10.0 mi NNW 15.0 mph 20.7 mph N/A   Clear
12:53 PM 52.0 °F - 21.9 °F 31% 30.42 in 10.0 mi North 13.8 mph 20.7 mph N/A   Clear
1:53 PM 53.1 °F - 21.9 °F 30% 30.40 in 10.0 mi NNW 15.0 mph 20.7 mph N/A   Clear
2:53 PM 55.0 °F - 24.1 °F 30% 30.37 in 10.0 mi NNW 8.1 mph 17.3 mph N/A   Clear
3:53 PM 55.9 °F - 24.1 °F 29% 30.35 in 10.0 mi NW 10.4 mph - N/A   Clear
4:53 PM 55.9 °F - 24.1 °F 29% 30.33 in 10.0 mi NW 9.2 mph - N/A   Clear
5:53 PM 55.0 °F - 21.9 °F 28% 30.34 in 10.0 mi North 11.5 mph - N/A   Clear
6:53 PM 53.1 °F - 21.9 °F 30% 30.34 in 10.0 mi NNE 9.2 mph - N/A   Clear
7:53 PM 48.9 °F - 24.1 °F 38% 30.35 in 10.0 mi NNE 4.6 mph - N/A   Clear
8:53 PM 46.9 °F - 27.0 °F 46% 30.35 in 10.0 mi NE 3.5 mph - N/A   Clear
9:53 PM 42.1 °F - 35.1 °F 76% 30.37 in 10.0 mi Calm Calm - N/A   Clear
10:53 PM 41.0 °F - 35.1 °F 79% 30.38 in 10.0 mi Calm Calm - N/A   Clear
11:53 PM 39.9 °F - 33.1 °F 77% 30.38 in 10.0 mi Calm Calm - N/A   Clear